Weather History for GMFK - August, 2014

Change the Weather History Date:

Thursday, August 21, 2014

  Actual Average Record
Temperature  
Mean Temperature 86 °F -  
Max Temperature 101 °F - - ()
Min Temperature 72 °F - - ()
Cooling Degree Days 22    
Growing Degree Days 36 (Base 50)    
Moisture  
Dew Point 45 °F    
Average Humidity 25    
Maximum Humidity 57    
Minimum Humidity 5    
Precipitation  
Precipitation 0.00 in - - ()
Sea Level Pressure  
Sea Level Pressure 30.14 in    
Wind  
Wind Speed 6 mph ()    
Max Wind Speed 14 mph    
Max Gust Speed -    
Visibility 8.5 miles    
Events      
T = Trace of Precipitation, MM = Missing Value Source: Averaged Metar Reports

Daily Weather History Graph

Daily Weather History Graph

Search for Another Location

Airport or City:

Trip Planner

Search our weather history database for the weather conditions in past years. The results will help you decide how hot, cold, wet, or windy it might be!

Date:

Astronomy

Aug. 21, 2014 Rise Set
Actual Time 6:45 AM WEST 7:55 PM WEST
Civil Twilight 6:20 AM WEST 8:20 PM WEST
Nautical Twilight 5:50 AM WEST 8:50 PM WEST
Astronomical Twilight 5:19 AM WEST 9:21 PM WEST
Moon 3:10 AM WEST (8/21) 5:08 PM WEST (8/21)
Length of Visible Light 13h 59m
Length of Day
13h 09m
Waning Crescent, 15% of the Moon is Illuminated
Aug 21
Waning Crescent
Aug 25
New
Sep 2
First Quarter
Sep 9
Full
Sep 16
Last Quarter

Hourly Weather History & Observations

Time (WEST) Temp. Heat Index Dew Point Humidity Pressure Visibility Wind Dir Wind Speed Gust Speed Precip Events Conditions
12:00 AM 82.4 °F 81.4 °F 53.6 °F 37% 30.18 in 6.2 mi NNW 12.7 mph - N/A   Partly Cloudy
1:00 AM 83 °F - 54 °F 26%  in 11 mi West 2.3 mph - -   Mostly Cloudy
1:00 AM 82.4 °F 81.4 °F 53.6 °F 37% 30.18 in 6.2 mi WSW 4.6 mph - N/A   Partly Cloudy
2:00 AM 82.4 °F 81.7 °F 55.4 °F 39% 30.18 in 6.2 mi SW 3.5 mph - N/A   Partly Cloudy
3:00 AM 80.6 °F 80.3 °F 53.6 °F 39% 30.15 in 6.2 mi WSW 2.3 mph - N/A   Scattered Clouds
4:00 AM 78 °F - 56 °F 35%  in 11 mi SSW 4.6 mph - -   Partly Cloudy
4:00 AM 77.0 °F - 55.4 °F 47% 30.15 in 6.2 mi SW 4.6 mph - N/A   Scattered Clouds
5:00 AM 77.0 °F - 55.4 °F 47% 30.15 in 6.2 mi SW 4.6 mph - N/A   Scattered Clouds
6:00 AM 75.2 °F - 57.2 °F 53% 30.15 in 6.2 mi West 5.8 mph - N/A   Scattered Clouds
7:00 AM 73 °F - 57 °F 47%  in 12 mi WNW 4.6 mph - -   Partly Cloudy
7:00 AM 77.0 °F - 53.6 °F 44% 30.15 in 6.2 mi NW 5.8 mph - N/A   Scattered Clouds
8:00 AM 75.2 °F - 59.0 °F 57% 30.18 in - West 3.5 mph - N/A   Clear
9:00 AM 78.8 °F - 51.8 °F 39% 30.18 in - ESE 9.2 mph - N/A   Clear
10:00 AM 87 °F - 48 °F 16%  in 16 mi NNW 4.6 mph - -  
10:00 AM 86.0 °F - 48.2 °F 27% 30.21 in - NNW 4.6 mph - N/A   Clear
11:00 AM 93.2 °F - 46.4 °F 20% 30.21 in 6.2 mi East 3.5 mph - N/A   Partly Cloudy
12:00 PM 96.8 °F - 41.0 °F 15% 30.21 in 6.2 mi North 5.8 mph - N/A   Partly Cloudy
1:00 PM 96 °F - 33 °F 5%  in 14 mi South 9.2 mph - -   Scattered Clouds
1:00 PM 98.6 °F - 32.0 °F 10% 30.18 in 6.2 mi South 6.9 mph - N/A   Partly Cloudy
2:00 PM 98.6 °F - 33.8 °F 10% 30.15 in 6.2 mi South 6.9 mph - N/A   Partly Cloudy
3:00 PM 98.6 °F - 37.4 °F 12% 30.12 in 6.2 mi South 8.1 mph - N/A   Scattered Clouds
4:00 PM 100 °F - 38 °F 6%  in 15 mi SSW 13.8 mph - -   Partly Cloudy
4:00 PM 100.4 °F - 37.4 °F 11% 30.09 in 6.2 mi South 9.2 mph - N/A   Scattered Clouds
5:00 PM 100.4 °F - 39.2 °F 12% 30.09 in 6.2 mi South 8.1 mph - N/A   Scattered Clouds
6:00 PM 100.4 °F - 37.4 °F 11% 30.06 in 6.2 mi West 6.9 mph - N/A   Scattered Clouds
7:00 PM 98 °F - 35 °F 5%  in 16 mi SSW 6.9 mph - -   Mostly Cloudy
7:00 PM 98.6 °F - 37.4 °F 12% 30.06 in 6.2 mi SSW 5.8 mph - N/A   Partly Cloudy
8:00 PM 96.8 °F - 35.6 °F 12% 30.09 in 6.2 mi South 2.3 mph - N/A   Partly Cloudy
9:00 PM 95.0 °F - 41.0 °F 15% 30.09 in 6.2 mi NNW 4.6 mph - N/A   Partly Cloudy
10:00 PM 93 °F - 38 °F 8%  in 17 mi North 9.2 mph - -   Partly Cloudy
10:00 PM 93.2 °F - 41.0 °F 16% 30.09 in - North 8.1 mph - N/A   Clear
11:00 PM 91.4 °F - 39.2 °F 16% 30.12 in - NNW 8.1 mph - N/A   Clear